Wind_Speed
15 14 14 15 15 13 9 8 7 6 5 3 3 3 3 3 3 3 3 3 3 3 3 3 3 4 4 4 4 4 3 3 4 3 3 3 4 4 4 4 4 4 4 4 4 4 3 3 3
15 13 16 17 14 10 9 8 8 7 5 3 3 3 3 4 4 4 3 3 3 3 3 3 3 3 3 4 4 4 3 3 3 2 3 3 3 4 4 3 3 3 4 4 4 4 3 3 3
15 14 17 16 11 9 10 10 9 8 6 4 4 4 3 3 4 4 4 3 3 4 3 3 4 4 4 4 3 3 2 3 3 2 3 3 3 3 3 3 3 3 3 3 3 3 3 3 4
14 16 17 14 10 10 10 10 10 9 7 6 4 4 4 3 4 4 4 4 4 5 4 4 4 4 4 3 3 3 2 2 2 2 3 4 3 2 3 3 3 3 3 2 2 2 2 4 5
15 16 14 11 10 10 10 9 10 9 8 6 5 4 4 4 4 4 4 4 5 5 5 4 4 4 4 4 3 3 3 2 2 2 3 3 3 3 3 2 2 3 3 2 2 2 3 3 4
15 14 10 8 9 9 9 10 9 8 8 7 5 4 5 5 4 4 4 4 4 5 5 4 4 4 4 3 3 2 2 2 3 2 2 2 2 2 2 2 2 2 3 2 2 3 4 4 4
13 12 9 8 8 8 9 10 10 9 7 7 7 6 5 5 4 4 4 4 4 5 4 4 4 4 3 3 3 2 2 1 2 2 2 2 1 1 1 1 2 2 2 2 2 3 3 3 3
13 11 7 7 8 8 8 9 9 9 8 7 7 7 6 5 4 4 4 4 5 5 5 5 5 5 4 3 2 2 2 1 1 2 2 1 1 1 0 0 1 1 1 2 3 2 2 3 3
8 8 7 6 7 7 8 9 9 8 7 7 6 7 7 6 6 5 5 5 5 5 5 5 5 4 4 4 3 2 2 2 1 1 2 1 1 1 0 1 1 2 2 2 2 1 2 2 3
6 6 6 5 6 7 8 8 9 8 7 7 7 7 8 7 7 6 6 6 6 7 6 6 5 4 4 4 3 3 3 3 2 2 2 1 1 1 1 1 1 1 2 1 2 2 3 3 4
5 4 5 5 6 7 8 8 8 8 7 6 6 7 7 8 7 7 7 7 7 7 6 6 5 5 4 4 4 3 3 3 2 2 2 2 2 2 2 2 1 2 2 2 3 4 4 4 5
4 4 4 5 6 6 7 7 7 8 8 7 7 6 7 8 7 7 7 7 6 6 6 5 5 5 5 5 5 5 4 3 2 2 2 2 2 2 2 2 1 2 3 4 4 4 4 4 6
3 3 3 5 6 7 7 7 8 8 8 7 7 7 7 8 8 7 8 7 7 7 6 7 6 6 5 5 6 6 5 4 4 3 2 2 3 3 3 2 2 2 3 4 4 4 4 4 5
2 3 5 6 7 8 7 7 8 8 8 8 7 7 7 8 8 8 8 8 7 7 6 6 7 6 5 5 6 6 6 6 5 4 3 3 3 3 3 3 3 3 3 4 4 4 5 5 5
2 4 6 7 8 8 8 7 8 8 8 7 7 7 7 7 8 8 8 8 8 7 7 7 7 6 6 6 6 6 6 7 7 5 4 4 4 4 4 4 3 3 4 4 4 4 4 5 5
2 2 4 5 8 8 8 8 9 9 8 7 7 7 7 6 7 7 7 8 8 8 8 7 7 7 7 6 6 6 5 6 6 6 5 5 4 4 4 4 4 4 4 5 5 5 5 4 5
3 2 4 5 8 7 7 8 9 9 8 7 7 7 7 6 7 7 7 7 7 7 8 7 7 7 7 6 6 6 5 5 5 5 6 5 5 5 5 4 5 5 5 5 6 5 5 5 6
1 3 4 3 8 7 7 8 9 10 9 7 7 7 7 7 6 7 7 7 7 7 7 7 7 7 7 7 6 6 5 5 5 5 5 6 6 5 5 5 5 5 5 5 5 5 5 5 6
4 6 6 5 7 9 7 8 9 9 10 9 7 7 7 7 6 7 7 7 7 7 6 6 6 7 7 7 6 5 5 5 5 5 5 6 6 6 6 6 5 5 5 4 4 5 5 6 7
7 8 7 6 7 8 8 7 9 9 9 9 9 9 7 7 7 7 7 7 7 7 7 6 7 7 7 6 6 6 6 5 5 5 5 6 6 6 6 5 5 4 4 4 5 5 6 6 7
9 9 8 9 9 8 9 10 9 10 8 8 9 9 8 8 7 7 7 7 6 6 6 6 6 7 7 7 6 6 6 6 6 5 5 5 5 6 6 6 6 5 4 4 5 6 6 7 8
10 10 11 11 10 7 8 11 12 12 10 7 8 8 8 8 7 6 7 7 6 6 6 6 6 7 7 7 7 6 6 6 5 5 5 5 5 6 6 6 6 7 6 5 6 7 7 7 7
11 10 10 10 10 9 9 11 13 13 11 9 8 8 8 8 7 7 6 7 6 5 5 6 6 6 7 7 7 7 6 5 5 5 6 6 5 5 6 6 6 6 6 6 7 7 7 8 8
12 11 11 12 11 12 11 12 13 14 14 11 9 9 9 8 7 7 7 6 6 6 5 5 6 6 6 7 7 7 6 5 5 5 6 6 6 6 6 6 6 6 7 7 7 7 7 8 9
13 11 12 12 11 12 11 11 13 14 14 12 10 9 11 10 9 7 8 8 7 7 6 6 6 6 7 7 7 7 6 6 6 6 6 7 7 7 7 6 7 7 7 8 9 9 8 9 9
14 13 13 12 12 14 13 12 13 11 13 13 11 10 12 11 11 9 9 9 9 8 8 7 7 7 7 7 7 7 7 7 7 6 6 7 7 7 7 7 7 8 8 9 9 9 10 10 11
15 16 15 14 14 16 16 16 14 12 14 13 12 11 11 11 11 10 9 9 9 9 9 8 8 8 8 8 8 7 7 7 7 7 7 8 8 8 8 8 9 9 9 10 10 10 11 12 12
18 16 15 16 17 17 17 17 14 14 13 14 12 11 11 11 10 10 11 10 9 9 9 9 9 9 9 9 8 8 8 8 8 8 8 9 9 9 10 10 10 11 11 12 12 12 13 13 14
18 17 17 18 18 16 17 18 16 15 15 14 14 12 12 11 11 11 11 11 11 11 11 11 11 11 11 10 10 9 9 10 10 10 10 10 10 11 11 11 12 13 13 13 13 14 14 14 15
20 19 18 18 18 17 19 20 18 17 14 13 13 14 14 13 11 11 12 13 13 12 12 13 13 13 12 12 11 11 11 10 11 11 11 12 11 12 13 13 14 14 15 15 15 15 15 15 16
Wind_Direction
76 76 71 66 60 54 45 35 32 42 49 53 61 63 68 93 91 78 73 68 66 73 78 69 78 92 97 117 131 129 139 151 153 157 174 181 186 185 181 178 187 189 182 178 181 176 180 185 194
77 75 67 59 54 42 34 27 25 35 47 54 58 73 71 88 95 91 84 78 72 73 65 66 79 84 94 106 122 127 134 133 132 145 163 173 180 181 183 182 185 185 173 172 176 181 183 192 202
75 70 64 56 43 36 33 30 27 31 38 49 54 62 68 73 84 81 76 70 64 71 73 71 78 70 71 99 112 115 117 121 122 127 140 156 159 173 182 183 183 179 175 180 187 195 211 215 214
76 69 63 54 35 35 35 32 30 30 33 44 50 58 67 66 67 72 72 60 59 68 73 70 69 59 70 93 98 104 101 124 123 125 124 146 139 149 175 181 181 175 185 196 205 213 224 235 227
77 67 58 46 30 26 31 32 31 30 33 43 44 40 58 66 61 64 65 58 59 61 62 59 59 63 76 85 86 94 100 112 117 110 112 131 142 146 163 178 166 183 212 228 239 244 236 238 242
75 61 57 44 27 23 26 29 32 30 29 41 44 39 44 55 54 52 52 56 52 46 54 60 61 60 62 67 81 95 104 113 113 105 94 113 132 143 155 187 190 199 211 230 241 240 238 257 266
72 65 47 29 22 21 21 25 27 31 34 37 42 40 43 50 46 42 44 46 41 40 49 54 53 57 57 60 66 85 92 102 111 105 91 94 102 122 148 194 202 205 213 222 248 266 278 275 279
75 73 61 35 24 20 16 24 27 27 29 29 34 36 37 41 43 46 49 46 39 33 37 39 43 42 48 57 62 58 74 86 99 96 83 80 63 81 119 201 228 252 281 277 274 273 290 285 283
64 64 50 34 23 15 15 21 24 26 29 28 29 36 38 39 46 47 46 42 40 35 37 32 37 38 36 43 52 56 56 67 59 61 84 62 34 44 354 281 284 291 291 300 304 300 308 293 291
57 60 51 32 25 21 23 21 22 25 29 31 30 33 37 41 45 45 46 41 38 38 41 37 31 34 29 29 31 35 38 42 44 55 74 65 15 358 345 334 326 325 319 318 341 331 321 313 316
62 55 52 39 26 30 27 25 25 24 28 36 30 30 38 42 41 36 37 38 38 37 36 31 27 26 24 24 24 33 35 30 38 51 55 41 14 14 5 1 343 340 343 345 346 345 336 330 330
57 45 40 27 17 24 25 30 31 25 30 35 32 29 36 40 38 33 33 36 36 36 33 25 24 29 32 33 34 30 36 38 43 56 61 47 21 11 22 7 6 8 357 350 346 350 342 339 340
59 45 36 32 19 19 24 25 20 23 30 31 28 29 30 31 33 30 31 34 33 33 33 30 32 31 32 38 38 38 46 47 48 48 50 43 32 28 35 47 26 6 355 349 337 336 338 335 336
95 74 34 25 13 18 15 21 17 17 28 28 27 28 30 31 32 29 30 29 27 27 32 32 32 33 34 34 35 38 51 54 52 46 45 45 44 35 25 8 0 351 346 342 338 334 332 326 332
91 43 17 11 3 7 3 6 16 4 18 24 24 25 26 27 27 26 26 23 26 30 28 30 28 33 36 33 36 39 49 52 48 47 40 34 33 25 17 9 358 349 347 347 341 332 326 326 331
69 34 350 1 356 358 357 1 359 359 2 13 14 15 13 20 20 19 19 20 25 26 23 25 26 28 28 32 34 38 38 38 39 38 35 30 20 10 6 2 353 348 350 354 349 339 340 342 350
56 359 332 347 341 342 343 342 350 352 351 355 2 4 4 5 9 11 13 17 19 18 18 24 24 22 22 29 32 35 31 30 30 31 31 27 17 9 5 7 3 0 360 360 360 353 353 350 349
215 290 293 311 316 325 331 333 341 346 346 344 348 359 357 356 358 3 7 10 12 13 13 18 23 24 23 27 30 31 30 30 22 21 23 20 19 21 18 16 15 12 8 6 1 354 348 346 347
233 249 252 254 289 299 313 319 331 340 339 341 345 352 350 345 344 345 355 3 5 7 7 12 17 20 22 22 21 21 21 22 17 14 12 14 14 14 13 18 19 15 12 10 7 358 351 349 349
240 254 261 265 281 297 310 315 325 328 331 333 340 340 335 335 334 333 341 349 357 2 8 11 12 13 13 13 13 15 16 12 9 12 12 9 10 11 12 15 17 16 9 3 358 352 350 350 351
244 255 263 270 274 288 314 320 320 311 313 316 323 333 329 327 326 329 329 336 342 350 358 360 3 3 4 5 5 6 6 8 4 3 7 9 11 11 10 13 15 14 8 360 356 354 350 346 345
252 253 256 266 279 292 300 304 311 308 307 306 315 327 324 322 321 321 320 328 334 338 343 348 352 355 356 357 359 359 359 359 1 5 8 6 8 5 3 8 6 7 7 8 359 353 350 344 342
241 247 260 266 267 276 285 292 299 300 302 301 308 318 315 319 318 316 315 321 329 333 332 338 344 345 348 348 348 346 350 353 351 353 357 1 358 351 349 355 357 359 358 353 356 354 346 347 346
243 249 261 271 274 273 269 277 290 297 302 296 302 303 305 313 309 303 303 316 322 324 323 326 333 332 335 336 337 341 343 344 343 340 341 346 346 343 338 340 343 345 348 347 346 348 347 344 340
244 250 263 276 280 279 277 276 284 294 299 298 291 299 299 304 301 293 294 308 311 309 312 317 324 322 322 323 323 329 331 334 333 333 331 335 338 336 331 327 328 332 336 335 333 336 339 339 336
239 245 251 263 271 281 283 270 277 284 292 293 291 291 292 295 294 288 290 293 297 300 303 306 311 313 312 312 312 316 321 327 329 329 325 326 326 327 328 328 325 326 327 324 322 324 326 327 327
240 240 244 256 265 272 271 269 273 277 289 296 290 283 280 282 282 284 290 291 296 299 298 299 302 306 306 307 305 307 308 314 318 320 319 318 319 319 318 320 323 319 319 319 317 316 317 317 319
240 241 240 246 258 265 270 273 273 277 284 294 291 284 276 272 273 277 286 289 292 297 295 292 294 298 298 299 301 303 303 305 306 307 308 311 312 313 314 312 315 312 311 312 310 309 311 313 313
243 241 241 242 245 259 271 274 279 278 283 285 287 281 278 271 272 279 282 287 289 289 291 290 290 291 294 293 291 291 295 298 298 300 301 305 308 307 307 304 306 307 306 307 307 308 309 309 310
239 239 241 245 247 249 263 271 275 277 276 273 274 276 275 270 267 277 282 282 284 286 289 289 289 290 291 291 288 285 288 292 293 295 295 299 304 304 303 303 302 302 300 301 303 305 307 308 309
Height
5893 5893 5893 5892 5892 5892 5892 5892 5890 5889 5889 5888 5887 5887 5886 5886 5887 5889 5886 5884 5884 5884 5884 5884 5884 5884 5883 5883 5883 5883 5883 5883 5883 5883 5883 5883 5884 5884 5885 5886 5886 5887 5887 5888 5889 5890 5891 5891 5892
5895 5894 5894 5893 5894 5895 5895 5893 5891 5891 5890 5889 5888 5888 5888 5888 5888 5887 5886 5886 5886 5885 5885 5885 5885 5885 5884 5884 5884 5884 5884 5883 5883 5883 5883 5884 5884 5885 5885 5886 5887 5887 5888 5888 5889 5890 5891 5891 5892
5897 5896 5896 5897 5898 5897 5897 5895 5893 5892 5891 5890 5890 5890 5889 5889 5889 5888 5888 5888 5887 5887 5887 5886 5886 5886 5885 5885 5885 5885 5884 5884 5884 5884 5884 5885 5885 5885 5886 5886 5887 5887 5888 5889 5889 5890 5891 5891 5892
5900 5899 5899 5901 5900 5899 5898 5897 5895 5894 5893 5892 5891 5891 5890 5891 5890 5890 5889 5889 5889 5888 5888 5887 5887 5887 5886 5886 5886 5886 5885 5885 5885 5885 5885 5885 5886 5886 5886 5887 5887 5888 5888 5889 5890 5890 5891 5891 5892
5901 5901 5903 5903 5902 5901 5900 5898 5897 5895 5894 5893 5893 5892 5892 5892 5891 5891 5891 5890 5890 5890 5889 5888 5888 5888 5887 5887 5887 5886 5886 5886 5886 5886 5886 5886 5886 5886 5887 5887 5888 5888 5888 5889 5890 5890 5891 5891 5891
5902 5902 5906 5906 5904 5904 5902 5900 5899 5897 5896 5895 5894 5894 5893 5893 5892 5892 5892 5891 5891 5890 5890 5889 5889 5889 5888 5888 5887 5887 5887 5887 5887 5887 5887 5887 5887 5888 5888 5888 5888 5889 5889 5889 5890 5890 5891 5891 5892
5906 5906 5908 5908 5907 5905 5904 5902 5900 5899 5898 5897 5896 5895 5895 5894 5894 5893 5893 5892 5892 5891 5891 5891 5890 5889 5889 5889 5888 5888 5888 5888 5888 5888 5888 5888 5888 5888 5888 5889 5889 5889 5889 5890 5890 5890 5891 5891 5891
5908 5910 5910 5909 5908 5907 5905 5904 5902 5901 5900 5899 5898 5897 5896 5896 5895 5894 5894 5894 5893 5892 5892 5891 5891 5890 5890 5890 5890 5889 5889 5889 5889 5889 5889 5889 5889 5889 5889 5889 5889 5889 5889 5890 5890 5890 5891 5891 5891
5911 5913 5912 5911 5911 5909 5907 5906 5904 5902 5901 5900 5899 5899 5898 5897 5896 5895 5895 5894 5894 5894 5893 5892 5892 5891 5891 5890 5890 5890 5890 5890 5889 5889 5889 5890 5890 5890 5890 5890 5890 5890 5890 5890 5890 5890 5891 5891 5891
5914 5914 5914 5913 5912 5910 5908 5907 5905 5904 5903 5902 5901 5900 5899 5898 5897 5897 5896 5896 5896 5895 5894 5893 5892 5892 5892 5891 5891 5891 5890 5890 5890 5890 5890 5890 5890 5890 5890 5890 5890 5890 5890 5890 5890 5890 5890 5891 5890
5916 5916 5915 5914 5913 5912 5911 5909 5907 5905 5904 5904 5903 5902 5901 5900 5899 5898 5898 5897 5897 5896 5895 5895 5894 5893 5893 5892 5892 5891 5891 5891 5891 5890 5890 5891 5891 5890 5890 5890 5890 5890 5890 5890 5890 5890 5890 5890 5889
5917 5917 5917 5916 5914 5913 5912 5911 5909 5907 5906 5905 5904 5903 5903 5902 5901 5900 5899 5899 5898 5897 5896 5896 5895 5894 5894 5893 5893 5892 5892 5891 5891 5891 5890 5890 5891 5890 5890 5890 5891 5890 5890 5890 5890 5890 5890 5889 5888
5919 5918 5918 5917 5916 5914 5913 5912 5911 5909 5908 5907 5905 5905 5904 5903 5902 5901 5901 5900 5899 5898 5897 5897 5896 5895 5895 5895 5894 5893 5893 5892 5892 5892 5891 5892 5891 5891 5891 5891 5891 5891 5890 5890 5890 5889 5889 5889 5888
5919 5918 5918 5917 5917 5915 5914 5913 5912 5911 5909 5908 5907 5906 5905 5904 5904 5903 5902 5901 5900 5900 5899 5898 5898 5897 5896 5896 5895 5895 5894 5894 5893 5893 5893 5893 5892 5892 5891 5891 5891 5890 5890 5890 5889 5889 5889 5889 5888
5918 5919 5919 5918 5918 5917 5916 5915 5914 5912 5910 5909 5908 5907 5906 5906 5905 5904 5904 5903 5902 5901 5901 5900 5899 5898 5898 5897 5896 5896 5895 5895 5894 5894 5893 5893 5893 5892 5892 5891 5891 5890 5890 5890 5889 5889 5889 5889 5888
5919 5920 5920 5920 5919 5918 5919 5916 5915 5913 5911 5910 5909 5908 5907 5907 5906 5905 5905 5904 5903 5903 5902 5901 5900 5899 5899 5898 5897 5897 5896 5895 5895 5895 5894 5894 5893 5893 5892 5891 5891 5890 5890 5889 5889 5889 5888 5888 5887
5920 5921 5921 5921 5920 5920 5919 5917 5916 5914 5912 5910 5910 5909 5908 5907 5907 5906 5906 5905 5904 5904 5903 5902 5902 5901 5900 5899 5899 5898 5897 5896 5896 5895 5895 5895 5894 5893 5892 5891 5890 5890 5889 5889 5889 5888 5888 5888 5887
5922 5923 5923 5923 5922 5920 5919 5918 5915 5914 5912 5911 5910 5910 5909 5908 5908 5907 5906 5906 5905 5905 5904 5904 5903 5902 5901 5900 5900 5899 5898 5898 5897 5896 5896 5895 5894 5894 5893 5891 5890 5890 5889 5889 5889 5888 5888 5888 5888
5922 5923 5923 5922 5922 5920 5919 5919 5917 5914 5913 5911 5910 5910 5910 5909 5908 5907 5907 5906 5906 5905 5905 5904 5904 5903 5902 5901 5901 5900 5899 5899 5898 5897 5897 5896 5895 5894 5893 5892 5891 5890 5890 5890 5889 5889 5888 5888 5888
5921 5921 5921 5922 5921 5919 5918 5918 5917 5915 5913 5912 5911 5911 5910 5910 5909 5908 5907 5907 5906 5906 5906 5905 5904 5904 5903 5902 5901 5901 5900 5899 5899 5898 5898 5897 5896 5895 5894 5892 5892 5891 5891 5890 5890 5889 5889 5889 5888
5920 5920 5920 5920 5920 5919 5918 5917 5917 5915 5913 5912 5912 5911 5910 5909 5909 5908 5907 5907 5906 5906 5906 5905 5905 5904 5903 5903 5902 5901 5901 5900 5899 5899 5898 5897 5896 5895 5894 5893 5892 5891 5891 5891 5890 5890 5889 5888 5887
5919 5919 5919 5918 5917 5917 5918 5917 5916 5915 5913 5912 5912 5911 5910 5909 5909 5908 5908 5907 5906 5906 5906 5905 5905 5904 5904 5903 5902 5902 5901 5900 5900 5899 5898 5898 5897 5896 5895 5894 5893 5892 5892 5891 5891 5890 5889 5888 5887
5917 5917 5917 5917 5916 5916 5917 5917 5916 5914 5913 5912 5911 5910 5909 5908 5908 5908 5907 5907 5906 5906 5906 5905 5905 5904 5904 5903 5903 5902 5901 5900 5900 5899 5899 5898 5897 5896 5896 5895 5894 5893 5893 5892 5891 5890 5889 5888 5887
5914 5915 5916 5915 5914 5915 5916 5916 5914 5911 5911 5911 5910 5909 5909 5908 5907 5907 5907 5906 5906 5906 5906 5905 5905 5904 5904 5903 5902 5902 5901 5900 5900 5899 5898 5898 5897 5896 5896 5895 5894 5893 5893 5892 5891 5890 5889 5888 5887
5912 5914 5914 5913 5913 5913 5913 5913 5914 5911 5910 5908 5908 5908 5907 5906 5906 5906 5906 5906 5906 5905 5905 5905 5904 5904 5903 5903 5902 5901 5901 5900 5900 5899 5898 5897 5897 5896 5895 5895 5894 5893 5892 5891 5890 5889 5888 5887 5886
5909 5911 5912 5913 5913 5912 5911 5911 5910 5909 5908 5907 5907 5907 5906 5905 5905 5905 5905 5905 5904 5904 5904 5904 5903 5903 5903 5902 5901 5901 5900 5900 5899 5898 5898 5897 5896 5896 5895 5894 5893 5892 5891 5890 5889 5888 5887 5886 5885
5906 5908 5910 5911 5911 5910 5909 5908 5907 5905 5906 5906 5905 5905 5904 5904 5903 5903 5903 5903 5903 5903 5903 5902 5902 5902 5901 5901 5900 5900 5899 5899 5898 5898 5897 5896 5895 5895 5894 5893 5892 5891 5890 5889 5888 5887 5886 5885 5884
5903 5905 5907 5907 5907 5907 5907 5906 5905 5903 5903 5904 5903 5902 5901 5901 5901 5901 5901 5901 5901 5901 5901 5901 5900 5900 5900 5900 5899 5898 5898 5898 5897 5897 5896 5895 5894 5893 5893 5892 5891 5890 5889 5887 5886 5885 5884 5883 5882
5899 5901 5902 5903 5904 5905 5903 5904 5902 5902 5902 5901 5901 5900 5899 5899 5898 5899 5899 5899 5899 5899 5899 5898 5898 5898 5898 5898 5897 5897 5896 5896 5895 5895 5894 5893 5892 5892 5891 5890 5889 5888 5886 5885 5884 5883 5881 5880 5879
5895 5896 5898 5899 5899 5900 5900 5901 5899 5898 5898 5897 5897 5896 5896 5896 5896 5896 5896 5896 5896 5896 5896 5896 5896 5896 5896 5895 5895 5894 5894 5894 5893 5893 5892 5891 5890 5889 5888 5887 5886 5885 5884 5882 5881 5880 5878 5877 5876